World > North America > United States > Pennsylvania > Bino

Hourly Bino, PA Regional Weather

Feedback E-mail the Weather

Quick WX

Bino, PA Weather Maps

°F °C°F °C
Bino Weather Map
UTC Time: 8/15/2022, 16:56
Your Time:

Bino, PA Regional Weather

Expires:202208151700;;086014
ASUS41 KCTP 151610
RWRCTP

REGIONAL WEATHER ROUNDUP
NATIONAL WEATHER SERVICE STATE COLLEGE PA
1200 PM EDT MON AUG 15 2022

Note: "fair" indicates few or no clouds below 12,000 feet with no 
significant weather and/or obstructions to visibility.

* = STATION THAT DOES NOT REPORT PRECIPITATION /E.G. RAIN...SNOW...ETC/
    THUNDER OR FOG.


PAZ004>006-010>012-017>019-024>028-033>037-041-042-045-046-049>053-151700-
CENTRAL PENNSYLVANIA
  
CITY           SKY/WX    TMP DP  RH WIND       PRES   REMARKS
BRADFORD       CLOUDY    67  53  61 SE14      30.05S                  
ST MARYS       NOT AVBL                                               
DUBOIS         CLOUDY    65  58  78 E9        30.02S                  
CLEARFIELD     CLOUDY    62  59  90 E8        30.03S                  
JOHNSTOWN      LGT RAIN  62  60  93 E6        30.01S                  
SOMERSET       LGT RAIN  59  59 100 E6        30.00F                  
ALTOONA        CLOUDY    63  61  93 E5        30.01S                  
STATE COLLEGE  CLOUDY    64  61  88 SE3       30.03R                  
REEDSVILLE       N/A     64  64 100 VRB3      30.02                   
WELLSBORO      CLOUDY    70  54  56 S12       30.05S                  
WILLIAMSPORT   CLOUDY    73  57  57 CALM      30.01S                  
SELINSGROVE    CLOUDY    71  64  78 CALM      30.02F                  
FT INDIANTOWN  CLOUDY    73  57  57 CALM      30.00S                  
CAPITAL CITY   CLOUDY    72  62  71 E3        30.01S                  
HARRISBURG     CLOUDY    71  61  70 W3        30.00F                  
YORK           CLOUDY    71  61  70 CALM      30.01F                  
$$


SKY/WX - Weather  TMP - Temperature  DP - Dew Point  RH - Humidity
WIND - Wind Direction/Speed PRES - Barometric Pressure VSB - Visibility
WCI - Wind Chill Index E13G22 Wind - East Wind 13 mph/Gusts of 22 mph

Trending Headlines

Bino Radar Loop



Bino Quick Facts


National Two Day Weather Forecast


E-mail the Bino Weather Forecast

Voice your opinion or tell us about page issues...